Volver al catálogo

ARIANE 5 R/B

ActivoGTO
NORAD 27510·ROCKET BODY·🇫🇷 France

Lanzado Aug 28, 2002 desde Guiana Space Centre

Loading…

TLE

EnvejeciendoSource: Space-Track

Época: Sep 14, 2026, 15:24 UTC

1 27510U 02040C   26257.64231238 -.00000053  00000-0  11538-2 0  9991
2 27510   5.5082 348.4910 7159080  28.5167  16.7304  2.27310497199673

Sigue ARIANE 5 R/B en tiempo real con AllMySat

Download on the App Store